STARLINK-5751, 55576

Orbit data source: Space-Track

STARLINK-5751, 55576 is a payload satellite owned by SpaceX/Seattle (US) in LEO that was launched on Sun, 12 Feb 2023 UTC via an FALCON 9 launch vehicle from the Air Force Eastern Test Range (AFETR). Payload-class satellites include a variety of spacecraft equipped with specific instruments for various scientific and technological missions. These include communications satellites like Starlink; space stations such as the ISS; scientific satellites like the Hubble; Earth observation satellites from companies like Planet Labs, Umbra, and HawkEye 360; GPS; miniature CubeSats for education and research; and military/defense satellites.

Loading next visibility...
Identifier
55576, 2023-020H
Orbit
LEO
Country
Flag of USUS
Related business
Manufacturer
SpaceX/Seattle
Mission
Operational Commercial Communications
Bus & Motor
STARLINK, Unknown motor
Mass
305 kg wet, ~290 kg dry
Launch date (UTC)
2023-02-12 (4 years ago)
Launch vehicle
FALCON 9
Launch site
Air Force Eastern Test Range (AFETR)
Object type
Payload
Rocket body
Debris
Shape & HBR
Box + 1 Pan, 10.1 m
Radar Cross Section
13.562 m², Large (>1 m²)

Expand to show TLE details & history
Last TLE update: 20 hours ago

TLE from 20 hours ago
0 STARLINK-5751
1 55576U 23020H   26263.62774432  .00000098  00000-0  13106-4 0  9991
2 55576  43.0037 318.5068 0001577 269.5577  90.5095 15.27575613199020
Epoch: 2026-09-20T15:03Z
TLE epoch observation values (Epoch: 2026-09-20T15:03:57.109Z)
Latitude
0.00006°
Longitude
92.99971°
Altitude
482.848 km
Speed
7.626 km/s
True Right ascension
21h 14m 01s
True Declination
0° 00' 00"
Sunlit
Object was in full shadow at epoch
Visualization orbit readout
Latitude
Unknown
Longitude
Unknown
Altitude
Unknown
Speed
Unknown
Apparent Right ascension
Unknown
Apparent Declination
Unknown
Sunlit
N/A
Visualization observer readout
Local Sidereal Time
04:02:41
Azimuth
Unknown
Elevation
Unknown
Doppler factor
Unknown
Orbital elements
Apogee altitude
486.089 km
Perigee altitude
483.924 km
Semi-major axis
6,863.144 km
Eccentricity
0.00016
Inclination
43.0037°
RAAN
318.5068°
Arg. of periapsis
269.5577°
True anomaly
90.52757°
Mean anomaly
90.5095°
Eccentric anomaly
90.51854°
Mean motion
3.81732 °/min
Orbital period
94.31 mins
BSTAR
0.000013106
Loading maneuver chart data...
Computing Atmospheric mass density...
Loading historical data...
Loading historical data...
Loading historical data...
Loading historical data...
Loading historical data...
Loading historical data...
Loading historical data...

Documentation

Showing up to 5 results
|